Printer-friendly version

IAU Minor Planet Center

Minor Planet Center

MPEC 2007-E44 : 2007 EU

The following Minor Planet Electronic Circular may be linked-to from your own Web pages, but must not otherwise be redistributed electronically.


Read MPEC 2007-E43 Read MPEC 2007-E45


M.P.E.C. 2007-E44                                Issued 2007 Mar. 11, 00:08 UT

     The Minor Planet Electronic Circulars contain information on unusual
         minor planets and routine data on comets.  They are published
   on behalf of Commission 20 of the International Astronomical Union by the
          Minor Planet Center, Smithsonian Astrophysical Observatory,
                          Cambridge, MA 02138, U.S.A.

             Prepared using the Tamkin Foundation Computer Network

                              MPC@CFA.HARVARD.EDU
          URL http://cfa-www.harvard.edu/iau/mpc.html  ISSN 1523-6714

                                    2007 EU

Observations:
     K07E00U* C2007 03 10.25752 11 24 18.64 +31 01 01.7          19.0 V EE044703
     K07E00U  C2007 03 10.26413 11 24 24.44 +31 02 09.2          19.5 V EE044703
     K07E00U  C2007 03 10.27072 11 24 30.24 +31 03 14.4          19.3 V EE044703
     K07E00U  C2007 03 10.27726 11 24 35.92 +31 04 19.7          19.6 V EE044703
     K07E00U  C2007 03 10.31069 11 25 05.08 +31 09 49.3          18.6 V EE044703
     K07E00U  C2007 03 10.32105 11 25 14.34 +31 11 30.5          19.1 V EE044703
     K07E00U  C2007 03 10.33144 11 25 23.26 +31 13 11.1          19.5 V EE044703
     K07E00U  C2007 03 10.34193 11 25 32.48 +31 14 50.9          19.1 V EE044703
     K07E00U  C2007 03 10.94193 11 34 49.59 +32 45 03.2          18.9 V EE044A13
     K07E00U  C2007 03 10.94341 11 34 50.78 +32 45 15.1          19.5 V EE044A13
     K07E00U  C2007 03 10.95915 11 35 03.93 +32 47 32.2          19.4 V EE044A13
     K07E00U  C2007 03 10.96097 11 35 05.43 +32 47 47.7          19.3 V EE044A13

Observer details:
703 Catalina Sky Survey.  Observers E. C. Beshore, A. P. Odell.  Measurers
    E. C. Beshore, E. J. Christensen, G. J. Garradd, A. R. Gibbs, A. D. Grauer,
    R. E. Hill, R. A. Kowalski, S. M. Larson, R. H. McNaught.  0.68-m Schmidt
    + CCD.
A13 Observatoire Naef, Marly.  Observer P. Kocher.  0.5-m f/3.3 Hypergraph
    + CCD.

Orbital elements:
2007 EU                                                  Earth MOID = 0.0306 AU
Epoch 2007 Apr. 10.0 TT = JDT 2454200.5                 MPC
M  34.02147              (2000.0)            P               Q
n   0.57547421     Peri.  333.47028     -0.74266230     -0.66680162
a   1.4314806      Node   164.21663     +0.64770945     -0.73870490
e   0.3018726      Incl.   13.14842     +0.17007402     -0.09844117
P   1.71           H   24.6           G   0.15           U   8
Residuals in seconds of arc
070310 703  0.5+  0.7-    070310 703  1.7-  0.2+    070310 A13  0.1+  0.2+
070310 703  0.2+  0.5+    070310 703  1.2+  0.5+    070310 A13  0.5-  0.7-
070310 703  0.2+  0.2-    070310 703  0.5-  0.5+    070310 A13  0.3+  0.3+
070310 703  0.6-  0.0     070310 703  0.7+  0.7-    070310 A13  0.1+  0.2+

Ephemeris:
2007 EU                  a,e,i = 1.43, 0.30, 13                  q = 0.9994
Date    TT    R. A. (2000) Decl.     Delta      r     Elong.  Phase     V
2007 03 11    11 35.62   +32 53.9    0.0484   1.036   150.9    27.8    19.3
2007 03 12    11 49.66   +35 00.7    0.0523   1.038   148.1    30.3    19.6
2007 03 13    12 02.27   +36 43.4    0.0563   1.041   145.7    32.6    19.8
2007 03 14    12 13.57   +38 06.8    0.0606   1.043   143.6    34.5    20.0
2007 03 15    12 23.68   +39 14.6    0.0649   1.046   141.7    36.1    20.2
2007 03 16    12 32.73   +40 09.8    0.0693   1.049   140.1    37.5    20.4
2007 03 17    12 40.83   +40 54.9    0.0739   1.052   138.7    38.6    20.6
2007 03 18    12 48.09   +41 31.7    0.0785   1.054   137.5    39.6    20.8
2007 03 19    12 54.61   +42 01.6    0.0832   1.057   136.5    40.4    20.9
2007 03 20    13 00.46   +42 25.9    0.0879   1.060   135.6    41.1    21.1
2007 03 21    13 05.72   +42 45.4    0.0927   1.063   134.8    41.7    21.2
2007 03 22    13 10.46   +43 01.0    0.0975   1.066   134.1    42.2    21.3
2007 03 23    13 14.74   +43 13.3    0.102    1.070   133.5    42.5    21.4
2007 03 24    13 18.61   +43 22.6    0.107    1.073   132.9    42.9    21.6
2007 03 25    13 22.11   +43 29.4    0.112    1.076   132.5    43.1    21.7
2007 03 26    13 25.28   +43 34.1    0.117    1.079   132.1    43.3    21.8
2007 03 27    13 28.15   +43 36.9    0.122    1.083   131.7    43.5    21.9
2007 03 28    13 30.76   +43 38.0    0.127    1.086   131.4    43.6    22.0
2007 03 29    13 33.14   +43 37.6    0.132    1.090   131.1    43.7    22.1
2007 03 30    13 35.29   +43 35.9    0.137    1.093   130.8    43.7    22.2
2007 03 31    13 37.25   +43 33.0    0.142    1.097   130.6    43.7    22.2

Timothy B. Spahr             (C) Copyright 2007 MPC           M.P.E.C. 2007-E44

Read MPEC 2007-E43 Read MPEC 2007-E45


Our Web policy. Index to the CBAT/MPC/ICQ pages.


Valid HTML 4.01!